This is the latest recevied weather packets stored in our database for station/object LA1HSA-13. If no packets are shown the sender has not sent any weather packets the latest 10 day(s).
| Time | Temp. | Humidity | Pressure | Rain* | Wind** | Luminosity | Snow |
|---|---|---|---|---|---|---|---|
| 1777972803 | 6.67° C | 44% | 1009.7 hPa | 0 mm | - | - | - |
| 1777972203 | 7.78° C | 42% | 1009.7 hPa | 0 mm | - | - | - |
| 1777971604 | 7.78° C | 44% | 1009.7 hPa | 0 mm | - | - | - |
| 1777970403 | 6.67° C | 41% | 1009.7 hPa | 0 mm | - | - | - |
| 1777969803 | 6.67° C | 42% | 1009.6 hPa | 0 mm | - | - | - |
| 1777969203 | 7.22° C | 46% | 1009.9 hPa | 0 mm | - | - | - |
| 1777968603 | 6.11° C | 42% | 1009.8 hPa | 0 mm | - | - | - |
| 1777968003 | 7.22° C | 46% | 1009.5 hPa | 0 mm | - | - | - |
| 1777967403 | 6.11° C | 45% | 1009.5 hPa | 0 mm | - | - | - |
| 1777966803 | 6.11° C | 46% | 1009.4 hPa | 0 mm | - | - | - |
| 1777966203 | 6.11° C | 49% | 1009.6 hPa | 0 mm | - | - | - |
| 1777965603 | 5.56° C | 48% | 1009.7 hPa | 0 mm | - | - | - |
| 1777965003 | 5.56° C | 49% | 1009.3 hPa | 0 mm | - | - | - |
| 1777964403 | 5.56° C | 50% | 1009.4 hPa | 0 mm | - | - | - |
| 1777963803 | 5° C | 49% | 1009.3 hPa | 0 mm | - | - | - |
| 1777963203 | 4.44° C | 52% | 1009 hPa | 0 mm | - | - | - |
| 1777962603 | 4.44° C | 53% | 1009.3 hPa | 0 mm | - | - | - |
| 1777962003 | 4.44° C | 54% | 1009.4 hPa | 0 mm | - | - | - |
| 1777961403 | 3.89° C | 56% | 1009.3 hPa | 0 mm | - | - | - |
| 1777960803 | 3.33° C | 56% | 1009.1 hPa | 0 mm | - | - | - |
| 1777960203 | 2.78° C | 61% | 1009.2 hPa | 0 mm | - | - | - |
| 1777959603 | 2.78° C | 61% | 1009.1 hPa | 0 mm | - | - | - |
| 1777959003 | 2.22° C | 60% | 1009.3 hPa | 0 mm | - | - | - |
| 1777958403 | 1.67° C | 62% | 1009.1 hPa | 0 mm | - | - | - |
| 1777957803 | 1.67° C | 65% | 1009.2 hPa | 0 mm | - | - | - |
* Rain latest hour (hover to see other rain measurements)
** Current wind speed in m/s (hover to see current wind gust speed)